Moose 62 — CGCZ — position and weather

sailwx.info

Track history (hours):
 
Tides and Currents Weather Stations Pressure Air Temp Water Temp Dewpoint Dewpoint Depression Visibility Wind Speed Wind Dir Waves Ship Positions

Moose 62

Last reported at 2014-Oct-30 12:33 UTC. Time now 2014-Oct-30 13:01 UTC.
Position N 49°21' W 123°20'.

; draft 2.6 m.

Type: Military. MMSI: 316013412.

Date/timePositionNaut miles runAvg speedWind from/ knotsBaromVisibWave heightAir tempDewpointWater temp
2014-Oct-30 12:33N 49°21' W 123°20'5 5.3
2014-Oct-30 11:33N 49°25' W 123°25'14 4.7
2014-Oct-30 08:34N 49°37' W 123°14'1110.6
2014-Oct-30 07:34N 49°27' W 123°17'9 9.2
2014-Oct-30 06:33N 49°18' W 123°23'1110.4
2014-Oct-30 05:32N 49°20' W 123°39'1111.6
2014-Oct-30 04:33N 49°24' W 123°56'1111.2
2014-Oct-30 03:33N 49°23' W 124°13'5 4.7
2014-Oct-30 02:31N 49°20' W 124°19'0 0.0
2014-Oct-30 01:26N 49°20' W 124°19'0 0.0
2014-Oct-30 00:32N 49°20' W 124°19'3 2.6
2014-Oct-29 23:33N 49°23' W 124°21'1312.1
2014-Oct-29 22:30N 49°33' W 124°32'9 8.4
2014-Oct-29 21:27N 49°40' W 124°40'11 1.1
2014-Oct-29 11:32N 49°51' W 124°43'7 7.4
2014-Oct-29 10:33N 49°44' W 124°40'9 9.5
2014-Oct-29 09:33N 49°36' W 124°31'9 8.4
2014-Oct-29 08:32N 49°29' W 124°24'8 8.6
2014-Oct-29 07:33N 49°25' W 124°13'8 8.4
2014-Oct-29 06:33N 49°21' W 124°02'8 8.4
2014-Oct-29 05:33N 49°16' W 123°51'7 6.8
2014-Oct-29 04:33N 49°12' W 123°42'8 7.7
2014-Oct-29 03:33N 49°06' W 123°35'5 3.9
2014-Oct-29 02:19N 49°02' W 123°40'5 6.8
2014-Oct-29 01:33N 48°57' W 123°42'1110.6
2014-Oct-29 00:33N 48°48' W 123°34'7 7.1
2014-Oct-28 23:33N 48°43' W 123°28'9 9.4
2014-Oct-28 22:33N 48°35' W 123°19'6 5.5
2014-Oct-28 21:33N 48°30' W 123°16'8 8.3
2014-Oct-28 20:33N 48°24' W 123°24'3 1.1
2014-Oct-28 18:04N 48°26' W 123°26'0 0.0
2014-Oct-28 17:33N 48°26' W 123°26'0 0.0
2014-Oct-28 16:33N 48°26' W 123°26'0 0.0
2014-Oct-28 15:33N 48°26' W 123°26'0 0.0
2014-Oct-28 14:27N 48°26' W 123°26'0 0.0
2014-Oct-28 13:33N 48°26' W 123°26'0 0.0
2014-Oct-28 12:33N 48°26' W 123°26'0 0.0
2014-Oct-28 11:09N 48°26' W 123°26'0 0.0
2014-Oct-28 10:33N 48°26' W 123°26'0 0.0
2014-Oct-28 09:12N 48°26' W 123°26'0 0.0
2014-Oct-28 08:24N 48°26' W 123°26'0 0.0
2014-Oct-28 07:24N 48°26' W 123°26'0 0.0
2014-Oct-28 06:30N 48°26' W 123°26'0 0.0
2014-Oct-28 05:29N 48°26' W 123°26'0 0.0
2014-Oct-28 04:30N 48°26' W 123°26'0 0.0
2014-Oct-28 03:30N 48°26' W 123°26'0 0.0
2014-Oct-28 02:28N 48°26' W 123°26'0 0.0
2014-Oct-28 00:15N 48°26' W 123°26'0 0.0
2014-Oct-27 23:28N 48°26' W 123°26'0 0.0
2014-Oct-27 22:28N 48°26' W 123°26'0 0.0
2014-Oct-27 21:24N 48°26' W 123°26'0 0.0
2014-Oct-27 20:12N 48°26' W 123°26'0 0.0
2014-Oct-27 18:24N 48°26' W 123°26'1 1.0
2014-Oct-27 17:28N 48°26' W 123°27'0 0.0
2014-Oct-27 16:31N 48°26' W 123°27'1 0.6
2014-Oct-27 15:33N 48°26' W 123°26'0 0.2
2014-Oct-27 13:26N 48°26' W 123°26'0 0.0
2014-Oct-27 12:31N 48°26' W 123°26'0 0.0
2014-Oct-27 11:24N 48°26' W 123°26'0 0.0
2014-Oct-27 10:32N 48°26' W 123°26'0 0.0
2014-Oct-27 09:32N 48°26' W 123°26'0 0.0
2014-Oct-27 08:32N 48°26' W 123°26'0 0.0
2014-Oct-27 07:32N 48°26' W 123°26'0 0.0
2014-Oct-27 06:32N 48°26' W 123°26'0 0.0
2014-Oct-27 05:29N 48°26' W 123°26'0 0.0
2014-Oct-27 04:32N 48°26' W 123°26'0 0.0
2014-Oct-27 03:17N 48°26' W 123°26'0 0.0
2014-Oct-27 02:19N 48°26' W 123°26'0 0.0
2014-Oct-27 01:19N 48°26' W 123°26'0 0.0
2014-Oct-27 00:31N 48°26' W 123°26'0 0.0
2014-Oct-26 19:19N 48°26' W 123°26'0 0.0
2014-Oct-26 17:28N 48°26' W 123°26'0 0.0
2014-Oct-26 16:22N 48°26' W 123°26'0 0.0
2014-Oct-26 15:29N 48°26' W 123°26'0 0.0
2014-Oct-26 14:31N 48°26' W 123°26'0 0.0
2014-Oct-26 13:31N 48°26' W 123°26'0 0.0
2014-Oct-26 12:33N 48°26' W 123°26'0 0.0
2014-Oct-26 11:33N 48°26' W 123°26'0 0.0
2014-Oct-26 10:18N 48°26' W 123°26'0 0.0
2014-Oct-26 09:29N 48°26' W 123°26'0 0.0
2014-Oct-26 08:26N 48°26' W 123°26'0 0.0
2014-Oct-26 07:29N 48°26' W 123°26'0 0.0
2014-Oct-26 06:32N 48°26' W 123°26'0 0.0
2014-Oct-26 05:32N 48°26' W 123°26'0 0.0
2014-Oct-26 04:28N 48°26' W 123°26'0 0.0
2014-Oct-26 03:31N 48°26' W 123°26'0 0.0
2014-Oct-26 02:22N 48°26' W 123°26'0 0.0
2014-Oct-26 01:28N 48°26' W 123°26'0 0.0
2014-Oct-26 00:31N 48°26' W 123°26'0 0.0
2014-Oct-25 23:25N 48°26' W 123°26'0 0.0
2014-Oct-25 22:28N 48°26' W 123°26'0 0.0
2014-Oct-25 21:22N 48°26' W 123°26'0 0.0
2014-Oct-25 20:28N 48°26' W 123°26'0 0.0
2014-Oct-25 19:28N 48°26' W 123°26'0 0.0
2014-Oct-25 18:28N 48°26' W 123°26'0 0.0
2014-Oct-25 17:28N 48°26' W 123°26'0 0.0
2014-Oct-25 16:28N 48°26' W 123°26'0 0.0
2014-Oct-25 15:31N 48°26' W 123°26'0 0.0
2014-Oct-25 14:28N 48°26' W 123°26'0 0.0
2014-Oct-25 13:28N 48°26' W 123°26'0 0.0
2014-Oct-25 12:28N 48°26' W 123°26'0 0.0
2014-Oct-25 11:28N 48°26' W 123°26'0 0.0
2014-Oct-25 10:31N 48°26' W 123°26'0 0.0
2014-Oct-25 09:28N 48°26' W 123°26'0 0.0
2014-Oct-25 08:30N 48°26' W 123°26'0 0.0
2014-Oct-25 07:30N 48°26' W 123°26'0 0.0
2014-Oct-25 06:24N 48°26' W 123°26'0 0.0
2014-Oct-25 05:30N 48°26' W 123°26'0 0.0
2014-Oct-25 04:33N 48°26' W 123°26'0 0.0
2014-Oct-25 03:30N 48°26' W 123°26'0 0.0
2014-Oct-25 02:30N 48°26' W 123°26'0 0.0
2014-Oct-25 01:33N 48°26' W 123°26'0 0.0
2014-Oct-25 00:30N 48°26' W 123°26'0 0.0
2014-Oct-24 23:30N 48°26' W 123°26'0 0.0
2014-Oct-24 22:30N 48°26' W 123°26'0 0.0
2014-Oct-24 21:30N 48°26' W 123°26'0 0.5
2014-Oct-24 20:30N 48°26' W 123°27'1 1.4
2014-Oct-24 19:34N 48°25' W 123°28'3 2.8
2014-Oct-24 18:33N 48°22' W 123°25'4 4.3
2014-Oct-24 17:33N 48°18' W 123°23'2 2.3
2014-Oct-24 16:33N 48°20' W 123°21'1 0.5
2014-Oct-24 15:33N 48°20' W 123°21'0 0.2
2014-Oct-24 14:33N 48°20' W 123°21'7 6.8
2014-Oct-24 13:33N 48°24' W 123°12'1010.2
2014-Oct-24 12:33N 48°34' W 123°13'9 9.1
2014-Oct-24 11:33N 48°43' W 123°17'6 6.4
2014-Oct-24 10:33N 48°43' W 123°26'4 4.1
2014-Oct-24 09:33N 48°40' W 123°31'3 3.5
2014-Oct-24 08:33N 48°43' W 123°32'5 5.4
2014-Oct-24 07:33N 48°44' W 123°24'7 7.0
2014-Oct-24 06:32N 48°51' W 123°25'3 3.6
2014-Oct-24 05:33N 48°54' W 123°28'9 8.7
2014-Oct-24 04:33N 48°47' W 123°20'3 2.6
2014-Oct-24 03:33N 48°45' W 123°22'8 7.9
2014-Oct-24 02:33N 48°39' W 123°14'8 8.2
2014-Oct-24 01:34N 48°31' W 123°11'8 7.7
2014-Oct-24 00:33N 48°23' W 123°13'9 8.8
2014-Oct-23 23:33N 48°24' W 123°27'1 0.6
2014-Oct-23 22:31N 48°24' W 123°28'0 0.4
2014-Oct-23 21:33N 48°24' W 123°28'0 0.4
2014-Oct-23 20:33N 48°24' W 123°28'0 0.3
2014-Oct-23 19:33N 48°24' W 123°28'1 0.7
2014-Oct-23 18:31N 48°24' W 123°27'3 3.2
2014-Oct-23 17:34N 48°21' W 123°28'1010.2
2014-Oct-23 16:33N 48°20' W 123°13'8 8.0
2014-Oct-23 15:34N 48°21' W 123°25'5 2.0
2014-Oct-23 13:14N 48°21' W 123°32'0 0.0
2014-Oct-23 12:14N 48°21' W 123°32'0 0.0
2014-Oct-23 11:32N 48°21' W 123°32'0 0.0
2014-Oct-23 10:31N 48°21' W 123°32'0 0.0
2014-Oct-23 09:31N 48°21' W 123°32'0 0.0
2014-Oct-23 08:31N 48°21' W 123°32'3 3.6
2014-Oct-23 07:34N 48°23' W 123°28'1 1.4
2014-Oct-23 06:33N 48°24' W 123°27'1 1.4
2014-Oct-23 05:33N 48°23' W 123°28'4 3.9
2014-Oct-23 04:31N 48°19' W 123°30'3 3.2
2014-Oct-23 03:32N 48°18' W 123°34'1 0.7
2014-Oct-23 02:32N 48°18' W 123°35'1 0.9
2014-Oct-23 01:33N 48°18' W 123°34'3 3.4
2014-Oct-23 00:32N 48°20' W 123°29'1 1.5
2014-Oct-22 23:34N 48°19' W 123°29'1 0.7
2014-Oct-22 22:31N 48°19' W 123°29'0 0.4
2014-Oct-22 21:33N 48°19' W 123°29'2 1.8
2014-Oct-22 20:32N 48°20' W 123°32'0 0.5
2014-Oct-22 19:33N 48°20' W 123°32'0 0.3
2014-Oct-22 18:34N 48°20' W 123°33'2 2.3
2014-Oct-22 17:34N 48°21' W 123°30'3 3.0
2014-Oct-22 16:32N 48°24' W 123°28'2 2.5
2014-Oct-22 15:33N 48°26' W 123°26'0 0.3
2014-Oct-22 14:33N 48°26' W 123°26'3 2.7
2014-Oct-22 13:33N 48°23' W 123°26'10 9.7
2014-Oct-22 12:34N 48°26' W 123°12'1413.9
2014-Oct-22 11:33N 48°40' W 123°16'5 5.3
2014-Oct-22 10:32N 48°45' W 123°14'0 0.0
2014-Oct-22 08:32N 48°45' W 123°14'0 0.0
2014-Oct-22 07:34N 48°45' W 123°14'0 0.0
2014-Oct-22 06:31N 48°45' W 123°14'0 0.0
2014-Oct-22 05:33N 48°45' W 123°14'1 1.3
2014-Oct-22 04:33N 48°44' W 123°13'10 9.5
2014-Oct-22 03:33N 48°49' W 123°01'7 7.0
2014-Oct-22 02:33N 48°52' W 123°10'1111.0
2014-Oct-22 01:34N 48°60' W 123°22'1313.1
2014-Oct-22 00:33N 49°09' W 123°36'9 9.3
2014-Oct-21 23:33N 49°14' W 123°49'6 2.8
2014-Oct-21 21:28N 49°10' W 123°56'0 0.0
2014-Oct-21 20:29N 49°10' W 123°56'0 0.0
2014-Oct-21 19:17N 49°10' W 123°56'0 0.2
2014-Oct-21 18:33N 49°10' W 123°56'6 5.6
2014-Oct-21 17:33N 49°12' W 123°48'1 0.9
2014-Oct-21 16:33N 49°11' W 123°47'2 2.1
2014-Oct-21 15:33N 49°11' W 123°44'1 1.4
2014-Oct-21 14:33N 49°11' W 123°42'7 6.9
2014-Oct-21 13:33N 49°15' W 123°51'9 8.7
2014-Oct-21 12:33N 49°22' W 123°59'1111.0
2014-Oct-21 11:33N 49°19' W 123°43'9 8.6
2014-Oct-21 10:33N 49°13' W 123°34'8 8.3
2014-Oct-21 09:33N 49°07' W 123°24'1110.9
2014-Oct-21 08:33N 48°59' W 123°13'10 9.2
2014-Oct-21 07:30N 48°53' W 123°02'7 7.1
2014-Oct-21 06:33N 48°46' W 123°02'9 9.2
2014-Oct-21 05:33N 48°42' W 123°14'10 9.9
2014-Oct-21 04:33N 48°32' W 123°12'9 9.1
2014-Oct-21 03:33N 48°23' W 123°14'8 7.7
2014-Oct-21 02:32N 48°19' W 123°24'1 0.5
2014-Oct-21 01:33N 48°18' W 123°23'1 0.7
2014-Oct-21 00:33N 48°19' W 123°23'8 7.5
2014-Oct-20 23:33N 48°26' W 123°26'0 0.3
2014-Oct-20 22:32N 48°26' W 123°26'0 0.0
2014-Oct-20 21:32N 48°26' W 123°26'0 0.0
2014-Oct-20 20:33N 48°26' W 123°26'0 0.0
2014-Oct-20 19:29N 48°26' W 123°26'0 0.0
2014-Oct-20 18:32N 48°26' W 123°26'0 0.0
2014-Oct-20 17:31N 48°26' W 123°26'0 0.0
2014-Oct-20 16:31N 48°26' W 123°26'0 0.0
2014-Oct-20 15:28N 48°26' W 123°26'0 0.0
2014-Oct-20 14:30N 48°26' W 123°26'0 0.0
2014-Oct-20 13:30N 48°26' W 123°26'  
Track history (hours):
 
Tides and Currents Weather Stations Pressure Air Temp Water Temp Dewpoint Dewpoint Depression Visibility Wind Speed Wind Dir Waves Ship Positions

Moose 62

Last reported at 2014-Oct-30 12:33 UTC. Time now 2014-Oct-30 13:01 UTC.
Position N 49°21' W 123°20'.

; draft 2.6 m.

Type: Military. MMSI: 316013412.

Date/timePositionNaut miles runAvg speedWind from/ knotsBaromVisibWave heightAir tempDewpointWater temp
2014-Oct-30 12:33N 49°21' W 123°20'5 5.3
2014-Oct-30 11:33N 49°25' W 123°25'14 4.7
2014-Oct-30 08:34N 49°37' W 123°14'1110.6
2014-Oct-30 07:34N 49°27' W 123°17'9 9.2
2014-Oct-30 06:33N 49°18' W 123°23'1110.4
2014-Oct-30 05:32N 49°20' W 123°39'1111.6
2014-Oct-30 04:33N 49°24' W 123°56'1111.2
2014-Oct-30 03:33N 49°23' W 124°13'5 4.7
2014-Oct-30 02:31N 49°20' W 124°19'0 0.0
2014-Oct-30 01:26N 49°20' W 124°19'0 0.0
2014-Oct-30 00:32N 49°20' W 124°19'3 2.6
2014-Oct-29 23:33N 49°23' W 124°21'1312.1
2014-Oct-29 22:30N 49°33' W 124°32'9 8.4
2014-Oct-29 21:27N 49°40' W 124°40'11 1.1
2014-Oct-29 11:32N 49°51' W 124°43'7 7.4
2014-Oct-29 10:33N 49°44' W 124°40'9 9.5
2014-Oct-29 09:33N 49°36' W 124°31'9 8.4
2014-Oct-29 08:32N 49°29' W 124°24'8 8.6
2014-Oct-29 07:33N 49°25' W 124°13'8 8.4
2014-Oct-29 06:33N 49°21' W 124°02'8 8.4
2014-Oct-29 05:33N 49°16' W 123°51'7 6.8
2014-Oct-29 04:33N 49°12' W 123°42'8 7.7
2014-Oct-29 03:33N 49°06' W 123°35'5 3.9
2014-Oct-29 02:19N 49°02' W 123°40'5 6.8
2014-Oct-29 01:33N 48°57' W 123°42'1110.6
2014-Oct-29 00:33N 48°48' W 123°34'7 7.1
2014-Oct-28 23:33N 48°43' W 123°28'9 9.4
2014-Oct-28 22:33N 48°35' W 123°19'6 5.5
2014-Oct-28 21:33N 48°30' W 123°16'8 8.3
2014-Oct-28 20:33N 48°24' W 123°24'3 1.1
2014-Oct-28 18:04N 48°26' W 123°26'0 0.0
2014-Oct-28 17:33N 48°26' W 123°26'0 0.0
2014-Oct-28 16:33N 48°26' W 123°26'0 0.0
2014-Oct-28 15:33N 48°26' W 123°26'0 0.0
2014-Oct-28 14:27N 48°26' W 123°26'0 0.0
2014-Oct-28 13:33N 48°26' W 123°26'0 0.0
2014-Oct-28 12:33N 48°26' W 123°26'0 0.0
2014-Oct-28 11:09N 48°26' W 123°26'0 0.0
2014-Oct-28 10:33N 48°26' W 123°26'0 0.0
2014-Oct-28 09:12N 48°26' W 123°26'0 0.0
2014-Oct-28 08:24N 48°26' W 123°26'0 0.0
2014-Oct-28 07:24N 48°26' W 123°26'0 0.0
2014-Oct-28 06:30N 48°26' W 123°26'0 0.0
2014-Oct-28 05:29N 48°26' W 123°26'0 0.0
2014-Oct-28 04:30N 48°26' W 123°26'0 0.0
2014-Oct-28 03:30N 48°26' W 123°26'0 0.0
2014-Oct-28 02:28N 48°26' W 123°26'0 0.0
2014-Oct-28 00:15N 48°26' W 123°26'0 0.0
2014-Oct-27 23:28N 48°26' W 123°26'0 0.0
2014-Oct-27 22:28N 48°26' W 123°26'0 0.0
2014-Oct-27 21:24N 48°26' W 123°26'0 0.0
2014-Oct-27 20:12N 48°26' W 123°26'0 0.0
2014-Oct-27 18:24N 48°26' W 123°26'1 1.0
2014-Oct-27 17:28N 48°26' W 123°27'0 0.0
2014-Oct-27 16:31N 48°26' W 123°27'1 0.6
2014-Oct-27 15:33N 48°26' W 123°26'0 0.2
2014-Oct-27 13:26N 48°26' W 123°26'0 0.0
2014-Oct-27 12:31N 48°26' W 123°26'0 0.0
2014-Oct-27 11:24N 48°26' W 123°26'0 0.0
2014-Oct-27 10:32N 48°26' W 123°26'0 0.0
2014-Oct-27 09:32N 48°26' W 123°26'0 0.0
2014-Oct-27 08:32N 48°26' W 123°26'0 0.0
2014-Oct-27 07:32N 48°26' W 123°26'0 0.0
2014-Oct-27 06:32N 48°26' W 123°26'0 0.0
2014-Oct-27 05:29N 48°26' W 123°26'0 0.0
2014-Oct-27 04:32N 48°26' W 123°26'0 0.0
2014-Oct-27 03:17N 48°26' W 123°26'0 0.0
2014-Oct-27 02:19N 48°26' W 123°26'0 0.0
2014-Oct-27 01:19N 48°26' W 123°26'0 0.0
2014-Oct-27 00:31N 48°26' W 123°26'0 0.0
2014-Oct-26 19:19N 48°26' W 123°26'0 0.0
2014-Oct-26 17:28N 48°26' W 123°26'0 0.0
2014-Oct-26 16:22N 48°26' W 123°26'0 0.0
2014-Oct-26 15:29N 48°26' W 123°26'0 0.0
2014-Oct-26 14:31N 48°26' W 123°26'0 0.0
2014-Oct-26 13:31N 48°26' W 123°26'0 0.0
2014-Oct-26 12:33N 48°26' W 123°26'0 0.0
2014-Oct-26 11:33N 48°26' W 123°26'0 0.0
2014-Oct-26 10:18N 48°26' W 123°26'0 0.0
2014-Oct-26 09:29N 48°26' W 123°26'0 0.0
2014-Oct-26 08:26N 48°26' W 123°26'0 0.0
2014-Oct-26 07:29N 48°26' W 123°26'0 0.0
2014-Oct-26 06:32N 48°26' W 123°26'0 0.0
2014-Oct-26 05:32N 48°26' W 123°26'0 0.0
2014-Oct-26 04:28N 48°26' W 123°26'0 0.0
2014-Oct-26 03:31N 48°26' W 123°26'0 0.0
2014-Oct-26 02:22N 48°26' W 123°26'0 0.0
2014-Oct-26 01:28N 48°26' W 123°26'0 0.0
2014-Oct-26 00:31N 48°26' W 123°26'0 0.0
2014-Oct-25 23:25N 48°26' W 123°26'0 0.0
2014-Oct-25 22:28N 48°26' W 123°26'0 0.0
2014-Oct-25 21:22N 48°26' W 123°26'0 0.0
2014-Oct-25 20:28N 48°26' W 123°26'0 0.0
2014-Oct-25 19:28N 48°26' W 123°26'0 0.0
2014-Oct-25 18:28N 48°26' W 123°26'0 0.0
2014-Oct-25 17:28N 48°26' W 123°26'0 0.0
2014-Oct-25 16:28N 48°26' W 123°26'0 0.0
2014-Oct-25 15:31N 48°26' W 123°26'0 0.0
2014-Oct-25 14:28N 48°26' W 123°26'0 0.0
2014-Oct-25 13:28N 48°26' W 123°26'0 0.0
2014-Oct-25 12:28N 48°26' W 123°26'0 0.0
2014-Oct-25 11:28N 48°26' W 123°26'0 0.0
2014-Oct-25 10:31N 48°26' W 123°26'0 0.0
2014-Oct-25 09:28N 48°26' W 123°26'0 0.0
2014-Oct-25 08:30N 48°26' W 123°26'0 0.0
2014-Oct-25 07:30N 48°26' W 123°26'0 0.0
2014-Oct-25 06:24N 48°26' W 123°26'0 0.0
2014-Oct-25 05:30N 48°26' W 123°26'0 0.0
2014-Oct-25 04:33N 48°26' W 123°26'0 0.0
2014-Oct-25 03:30N 48°26' W 123°26'0 0.0
2014-Oct-25 02:30N 48°26' W 123°26'0 0.0
2014-Oct-25 01:33N 48°26' W 123°26'0 0.0
2014-Oct-25 00:30N 48°26' W 123°26'0 0.0
2014-Oct-24 23:30N 48°26' W 123°26'0 0.0
2014-Oct-24 22:30N 48°26' W 123°26'0 0.0
2014-Oct-24 21:30N 48°26' W 123°26'0 0.5
2014-Oct-24 20:30N 48°26' W 123°27'1 1.4
2014-Oct-24 19:34N 48°25' W 123°28'3 2.8
2014-Oct-24 18:33N 48°22' W 123°25'4 4.3
2014-Oct-24 17:33N 48°18' W 123°23'2 2.3
2014-Oct-24 16:33N 48°20' W 123°21'1 0.5
2014-Oct-24 15:33N 48°20' W 123°21'0 0.2
2014-Oct-24 14:33N 48°20' W 123°21'7 6.8
2014-Oct-24 13:33N 48°24' W 123°12'1010.2
2014-Oct-24 12:33N 48°34' W 123°13'9 9.1
2014-Oct-24 11:33N 48°43' W 123°17'6 6.4
2014-Oct-24 10:33N 48°43' W 123°26'4 4.1
2014-Oct-24 09:33N 48°40' W 123°31'3 3.5
2014-Oct-24 08:33N 48°43' W 123°32'5 5.4
2014-Oct-24 07:33N 48°44' W 123°24'7 7.0
2014-Oct-24 06:32N 48°51' W 123°25'3 3.6
2014-Oct-24 05:33N 48°54' W 123°28'9 8.7
2014-Oct-24 04:33N 48°47' W 123°20'3 2.6
2014-Oct-24 03:33N 48°45' W 123°22'8 7.9
2014-Oct-24 02:33N 48°39' W 123°14'8 8.2
2014-Oct-24 01:34N 48°31' W 123°11'8 7.7
2014-Oct-24 00:33N 48°23' W 123°13'9 8.8
2014-Oct-23 23:33N 48°24' W 123°27'1 0.6
2014-Oct-23 22:31N 48°24' W 123°28'0 0.4
2014-Oct-23 21:33N 48°24' W 123°28'0 0.4
2014-Oct-23 20:33N 48°24' W 123°28'0 0.3
2014-Oct-23 19:33N 48°24' W 123°28'1 0.7
2014-Oct-23 18:31N 48°24' W 123°27'3 3.2
2014-Oct-23 17:34N 48°21' W 123°28'1010.2
2014-Oct-23 16:33N 48°20' W 123°13'8 8.0
2014-Oct-23 15:34N 48°21' W 123°25'5 2.0
2014-Oct-23 13:14N 48°21' W 123°32'0 0.0
2014-Oct-23 12:14N 48°21' W 123°32'0 0.0
2014-Oct-23 11:32N 48°21' W 123°32'0 0.0
2014-Oct-23 10:31N 48°21' W 123°32'0 0.0
2014-Oct-23 09:31N 48°21' W 123°32'0 0.0
2014-Oct-23 08:31N 48°21' W 123°32'3 3.6
2014-Oct-23 07:34N 48°23' W 123°28'1 1.4
2014-Oct-23 06:33N 48°24' W 123°27'1 1.4
2014-Oct-23 05:33N 48°23' W 123°28'4 3.9
2014-Oct-23 04:31N 48°19' W 123°30'3 3.2
2014-Oct-23 03:32N 48°18' W 123°34'1 0.7
2014-Oct-23 02:32N 48°18' W 123°35'1 0.9
2014-Oct-23 01:33N 48°18' W 123°34'3 3.4
2014-Oct-23 00:32N 48°20' W 123°29'1 1.5
2014-Oct-22 23:34N 48°19' W 123°29'1 0.7
2014-Oct-22 22:31N 48°19' W 123°29'0 0.4
2014-Oct-22 21:33N 48°19' W 123°29'2 1.8
2014-Oct-22 20:32N 48°20' W 123°32'0 0.5
2014-Oct-22 19:33N 48°20' W 123°32'0 0.3
2014-Oct-22 18:34N 48°20' W 123°33'2 2.3
2014-Oct-22 17:34N 48°21' W 123°30'3 3.0
2014-Oct-22 16:32N 48°24' W 123°28'2 2.5
2014-Oct-22 15:33N 48°26' W 123°26'0 0.3
2014-Oct-22 14:33N 48°26' W 123°26'3 2.7
2014-Oct-22 13:33N 48°23' W 123°26'10 9.7
2014-Oct-22 12:34N 48°26' W 123°12'1413.9
2014-Oct-22 11:33N 48°40' W 123°16'5 5.3
2014-Oct-22 10:32N 48°45' W 123°14'0 0.0
2014-Oct-22 08:32N 48°45' W 123°14'0 0.0
2014-Oct-22 07:34N 48°45' W 123°14'0 0.0
2014-Oct-22 06:31N 48°45' W 123°14'0 0.0
2014-Oct-22 05:33N 48°45' W 123°14'1 1.3
2014-Oct-22 04:33N 48°44' W 123°13'10 9.5
2014-Oct-22 03:33N 48°49' W 123°01'7 7.0
2014-Oct-22 02:33N 48°52' W 123°10'1111.0
2014-Oct-22 01:34N 48°60' W 123°22'1313.1
2014-Oct-22 00:33N 49°09' W 123°36'9 9.3
2014-Oct-21 23:33N 49°14' W 123°49'6 2.8
2014-Oct-21 21:28N 49°10' W 123°56'0 0.0
2014-Oct-21 20:29N 49°10' W 123°56'0 0.0
2014-Oct-21 19:17N 49°10' W 123°56'0 0.2
2014-Oct-21 18:33N 49°10' W 123°56'6 5.6
2014-Oct-21 17:33N 49°12' W 123°48'1 0.9
2014-Oct-21 16:33N 49°11' W 123°47'2 2.1
2014-Oct-21 15:33N 49°11' W 123°44'1 1.4
2014-Oct-21 14:33N 49°11' W 123°42'7 6.9
2014-Oct-21 13:33N 49°15' W 123°51'9 8.7
2014-Oct-21 12:33N 49°22' W 123°59'1111.0
2014-Oct-21 11:33N 49°19' W 123°43'9 8.6
2014-Oct-21 10:33N 49°13' W 123°34'8 8.3
2014-Oct-21 09:33N 49°07' W 123°24'1110.9
2014-Oct-21 08:33N 48°59' W 123°13'10 9.2
2014-Oct-21 07:30N 48°53' W 123°02'7 7.1
2014-Oct-21 06:33N 48°46' W 123°02'9 9.2
2014-Oct-21 05:33N 48°42' W 123°14'10 9.9
2014-Oct-21 04:33N 48°32' W 123°12'9 9.1
2014-Oct-21 03:33N 48°23' W 123°14'8 7.7
2014-Oct-21 02:32N 48°19' W 123°24'1 0.5
2014-Oct-21 01:33N 48°18' W 123°23'1 0.7
2014-Oct-21 00:33N 48°19' W 123°23'8 7.5
2014-Oct-20 23:33N 48°26' W 123°26'0 0.3
2014-Oct-20 22:32N 48°26' W 123°26'0 0.0
2014-Oct-20 21:32N 48°26' W 123°26'0 0.0
2014-Oct-20 20:33N 48°26' W 123°26'0 0.0
2014-Oct-20 19:29N 48°26' W 123°26'0 0.0
2014-Oct-20 18:32N 48°26' W 123°26'0 0.0
2014-Oct-20 17:31N 48°26' W 123°26'0 0.0
2014-Oct-20 16:31N 48°26' W 123°26'0 0.0
2014-Oct-20 15:28N 48°26' W 123°26'0 0.0
2014-Oct-20 14:30N 48°26' W 123°26'0 0.0
2014-Oct-20 13:30N 48°26' W 123°26'  

Dump ship's entire track history